Location: Academy Plaza Shopping Center
(35.1300°N, 106.5500°W)
Time: 21:11:26
(UTC+00:00)

Daily predictions for brighter satellites

Satellite Brightness Start Highest point End
(mag) Time Altitude Azimuth Time Altitude Azimuth Time Altitude Azimuth
Cosmos 1943 3.5 12:02:47 25° N 12:06:07 64° ENE 12:11:40 10° SSE
GPS 2-04 Rocket1 4.3 12:06:32 23° S 12:07:42 28° SSE 12:11:09 10° E
Okean 1-7 3.2 12:06:29 31° N 12:08:30 71° E 12:12:51 10° SSE
Cosmos 2084 Rocket 3.9 12:12:19 46° SW 12:12:19 46° SW 12:15:58 10° SSE
STARLINK 1058 4.4 12:13:17 34° NNE 12:13:38 35° NE 12:16:58 10° ESE
STARLINK 1043 4.3 12:16:29 35° NNE 12:16:59 37° NE 12:20:22 10° ESE
Meteor 1-25 Rocket 4.1 12:13:19 10° SSW 12:18:49 60° W 12:24:25 10° N
Cosmos 2026 Rocket 4.1 12:12:49 10° N 12:19:03 77° E 12:25:20 10° S
STARLINK 1065 4.2 12:19:35 36° NNE 12:20:13 40° NE 12:23:38 10° ESE
USA 234 3.8 12:16:36 10° NNE 12:22:25 36° NW 12:23:58 32° WNW
Cosmos 44 3.0 12:18:54 11° SSW 12:23:36 76° WNW 12:28:13 10° NNE
STARLINK 1063 4.1 12:22:52 37° N 12:23:39 43° NE 12:27:05 10° ESE
PAYLOAD B 4.5 12:19:11 10° NNE 12:24:43 72° ESE 12:30:15 10° S
Cosmos 2279 Rocket 4.2 12:18:42 10° S 12:24:50 71° E 12:31:02 10° N
Cosmos 371 Rocket 4.0 12:20:43 10° S 12:25:26 56° ESE 12:30:11 10° NNE
STARLINK 1064 4.0 12:25:58 37° N 12:26:53 47° NE 12:30:21 10° ESE
COBE Rocket 4.3 12:22:29 10° SSW 12:27:00 38° W 12:27:07 38° W
Cosmos 1602 3.6 12:25:19 10° SSW 12:29:04 61° W 12:32:52 10° N
Cosmos 1603 3.7 12:27:16 29° NW 12:30:07 57° WSW 12:35:40 10° S
STARLINK 1041 3.9 12:29:11 36° N 12:30:14 50° NE 12:33:46 10° ESE
Meteor 1-14 Rocket 4.2 12:25:04 10° SSW 12:30:58 71° W 12:36:58 10° N
STARLINK 1038 3.7 12:32:23 35° NNW 12:33:35 55° NE 12:37:07 10° ESE
Cosmos 1634 Rocket 4.0 12:29:50 10° SSW 12:35:53 55° W 12:41:56 10° N
ALOS 2.1 12:32:14 10° N 12:36:55 78° WNW 12:41:34 10° SSW
STARLINK 1046 3.6 12:35:36 34° NNW 12:36:56 59° NE 12:40:30 10° ESE
SJ-12 3.9 12:35:42 10° N 12:39:43 54° WNW 12:43:42 10° SSW
STARLINK 1039 3.5 12:38:49 32° NNW 12:40:16 64° NE 12:43:52 10° SE
STARLINK 1045 3.4 12:40:36 31° NNW 12:42:09 68° NE 12:45:44 10° SE
Okean 1 3.2 12:39:56 18° NNW 12:42:47 62° W 12:46:42 10° S
Cosmos 1331 Rocket 4.0 12:39:11 10° SSW 12:44:18 80° ESE 12:49:30 10° NNE
Meteor 2-4 Rocket 4.4 12:40:20 10° N 12:45:39 53° E 12:50:52 10° SSE
Meteor 1-19 Rocket 4.2 12:43:11 10° N 12:48:46 86° W 12:54:27 10° S
Okean 3 3.9 12:46:11 10° N 12:50:21 63° E 12:54:31 10° SSE
COSMO-SKYMED 1 2.7 12:46:13 10° S 12:50:25 50° W 12:54:26 11° NNW
Cosmos 1484 Rocket 4.3 12:53:51 18° WSW 12:53:51 18° WSW 12:55:22 10° SW
Geosat 3.9 12:50:54 10° SSE 12:55:54 77° WSW 13:00:57 10° NNW
Cosmos 2263 Rocket 3.3 12:56:29 19° WNW 12:57:11 20° WNW 13:01:12 10° N
Starlink Launch 2 leader 3.7 12:57:37 23° WSW 12:57:46 23° SW 12:59:49 10° S
Cosmos 1110 Rocket 3.9 12:53:24 10° SSW 12:58:33 65° WNW 13:03:41 10° N
Starlink Launch 2 trailer 3.8 13:01:09 20° WSW 13:01:26 21° SW 13:03:22 10° S
GEOS 3 Rocket 3.5 12:56:34 10° SSE 13:01:38 73° WSW 13:06:41 10° NW
Cosmos 1655 Rocket 4.1 12:55:36 10° N 13:01:50 80° E 13:08:03 10° S
Orbus 7S? 3.7 13:01:45 23° NW 13:01:58 23° NW 13:04:05 10° N
Cosmos 2221 Rocket 3.5 13:00:22 10° NNW 13:04:43 63° W 13:09:05 10° S
Cosmos 1536 3.7 13:01:41 10° S 13:05:38 53° E 13:09:37 10° NNE
FALCON 9 R/B 4.3 12:58:37 16° W 13:05:41 85° S 13:41:14 10° ESE
FALCON 9 DEB 4.1 13:05:37 16° WSW 13:05:50 16° SW 13:07:21 10° S
Cosmos 1733 Rocket 2.9 13:01:49 10° S 13:06:07 76° W 13:10:26 10° N
NOSS 3-2 (A) 3.4 13:01:14 10° SSW 13:06:49 85° ESE 13:13:02 10° NNE
Cosmos 44 Rocket 4.2 13:03:33 10° SSW 13:08:21 54° ESE 13:13:04 10° NE
STARLINK 1027 3.6 13:09:18 19° WNW 13:10:54 34° SW 13:13:36 10° SSE
STARLINK 1028 3.6 13:09:32 19° WNW 13:11:07 34° SW 13:13:49 10° SSE
STARLINK 1021 3.6 13:09:44 19° WNW 13:11:20 34° SW 13:14:01 10° SSE
STARLINK 1019 3.6 13:09:55 19° WNW 13:11:35 34° SW 13:14:18 10° SSE
STARLINK 1012 3.6 13:10:11 19° WNW 13:11:48 33° SW 13:14:29 10° SSE
STARLINK 1010 3.6 13:10:24 18° WNW 13:12:02 33° SW 13:14:42 10° SSE
STARLINK 1026 3.6 13:10:37 18° WNW 13:12:15 33° SW 13:14:55 10° SSE
BREEZE-M DEB (TANK) 2.5 13:09:59 10° SW 13:12:17 75° NW 13:15:58 10° NE
STARLINK 1013 3.6 13:10:50 18° WNW 13:12:28 33° SW 13:15:08 10° SSE
STARLINK 1009 3.6 13:11:03 18° WNW 13:12:42 32° SW 13:15:22 10° SSE
STARLINK 1015 3.7 13:11:15 18° WNW 13:12:55 32° SW 13:15:35 10° SSE
STARLINK 1016 3.7 13:11:28 18° WNW 13:13:08 32° SW 13:15:48 10° SSE
STARLINK 1008 3.7 13:11:41 18° WNW 13:13:21 32° SW 13:16:01 10° SSE
STARLINK 1014 3.7 13:11:54 17° WNW 13:13:35 32° SW 13:16:14 10° SSE
STARLINK 1025 3.7 13:12:07 17° WNW 13:13:48 31° SW 13:16:27 10° SSE
STARLINK 1017 3.7 13:12:21 17° WNW 13:14:03 31° SW 13:16:42 10° SSE
STARLINK 1023 3.7 13:12:34 17° WNW 13:14:16 31° SW 13:16:54 10° SSE
STARLINK 1007 3.7 13:12:46 17° WNW 13:14:29 31° SW 13:17:06 10° SSE
STARLINK 1048 3.7 13:13:00 17° WNW 13:14:43 31° SW 13:17:20 10° SSE
STARLINK 1049 3.8 13:13:13 17° WNW 13:14:56 30° SW 13:17:34 10° SSE
STARLINK 1051 3.8 13:13:25 17° WNW 13:15:09 30° SW 13:17:47 10° SSE
STARLINK 1037 3.8 13:13:38 16° WNW 13:15:23 30° SW 13:18:00 10° SSE
STARLINK 1059 3.8 13:13:51 16° WNW 13:15:36 30° SW 13:18:13 10° SSE
STARLINK 1052 3.8 13:13:58 16° WNW 13:15:44 30° SW 13:18:20 10° SSE
STARLINK 1057 3.8 13:14:04 16° WNW 13:15:50 30° SW 13:18:26 10° SSE
STARLINK 1034 3.8 13:14:03 16° WNW 13:15:51 30° SW 13:18:29 10° SSE
Okean O Rocket 2.0 13:11:45 10° N 13:15:51 39° WNW 13:19:58 10° SW
STARLINK 1068 3.8 13:14:29 16° WNW 13:16:16 29° SW 13:18:52 10° SSE
STARLINK 1029 3.8 13:14:43 16° WNW 13:16:30 29° SW 13:19:05 10° SSE
STARLINK 1060 3.8 13:14:56 16° WNW 13:16:44 29° SW 13:19:19 10° SSE
STARLINK 1030 3.9 13:15:06 16° WNW 13:16:57 29° SW 13:19:34 10° SSE
STARLINK 1020 3.9 13:15:22 16° WNW 13:17:10 29° SW 13:19:45 10° SSE
USA 238 DEB 3.6 13:10:48 10° SW 13:17:25 72° WNW 13:24:15 10° NNE
USA 238 3.6 13:10:55 10° SW 13:17:31 73° WNW 13:24:21 10° NNE
STARLINK 1040 4.0 13:15:55 15° W 13:17:41 26° SW 13:20:11 10° S
STARLINK 1033 3.9 13:16:01 15° WNW 13:17:50 28° SW 13:20:24 10° SSE
STARLINK 1031 3.9 13:16:14 15° WNW 13:18:04 28° SW 13:20:38 10° SSE
STARLINK 1024 3.9 13:16:25 15° WNW 13:18:18 28° SW 13:20:53 10° SSE
STARLINK 1050 3.8 13:15:40 14° WNW 13:18:28 44° SW 13:21:53 10° SSE
STARLINK 1035 3.9 13:16:40 15° WNW 13:18:32 27° SW 13:21:05 10° S
STARLINK 1032 3.9 13:16:53 15° WNW 13:18:44 27° SW 13:21:17 10° S
STARLINK 1011 4.0 13:17:03 15° WNW 13:18:57 27° SW 13:21:32 10° S
STARLINK 1036 4.0 13:17:19 15° WNW 13:19:11 27° SW 13:21:43 10° S
STARLINK 1047 4.0 13:17:45 14° WNW 13:19:38 27° SW 13:22:09 10° S
FENGYUN 3A 4.3 13:15:57 10° N 13:20:42 33° WNW 13:25:26 10° SW
STARLINK 1055 3.9 13:18:48 13° WNW 13:21:43 40° SW 13:25:05 10° SSE
H-2A R/B 2.7 13:20:53 10° NNE 13:24:39 88° E 13:28:27 10° SSW
STARLINK 1022 4.0 13:21:44 12° WNW 13:24:45 37° SW 13:28:05 10° SSE
Helios 1A Rocket 3.6 13:21:48 10° N 13:25:21 30° WNW 13:28:53 10° SW
Cosmos 304 Rocket 3.7 13:20:55 10° SSW 13:25:41 81° WNW 13:30:29 10° NNE
CENTAUR R/B 3.4 13:20:28 10° S 13:25:56 52° ESE 13:32:14 10° NE
STARLINK 1042 4.1 13:24:58 11° WNW 13:28:06 34° SW 13:31:23 10° SSE
Cosmos 1844 Rocket 2.8 13:23:28 10° SW 13:28:54 52° WNW 13:34:20 10° N
Cosmos 1346 Rocket 4.4 13:27:23 10° WSW 13:29:33 14° WNW 13:31:44 10° NW
Cosmos 1844 3.7 13:24:23 10° SSW 13:30:08 67° WNW 13:35:55 10° NNE
STARLINK 1056 4.3 13:28:08 10° WNW 13:31:21 31° SW 13:34:34 10° SSE
Meteor 1-13 Rocket 4.2 13:26:53 10° NNW 13:32:26 77° W 13:38:03 10° S
STARLINK 1054 4.4 13:31:31 10° WNW 13:34:40 29° SW 13:37:48 10° S
Envisat 4.0 13:30:51 10° NNE 13:35:48 52° E 13:40:44 10° S
CZ-4B R/B 3.9 13:32:12 10° N 13:37:13 34° WNW 13:42:14 10° SW
Hubble Space Telescope 3.3 13:34:24 10° SSW 13:37:22 19° SSE 13:40:21 10° ESE
Okean-O 3.5 13:33:07 10° NNE 13:37:30 57° E 13:41:50 10° S
Cosmos 1674 Rocket 3.5 13:36:44 10° NNW 13:41:02 66° W 13:45:16 10° S
Feng Yun 1-1 Rocket 4.3 13:35:38 10° NNE 13:41:17 83° WNW 13:47:05 10° SSW
